EN

Hourly Weather Laboe

Today, 3 August, Tuesday

Time Temperature Precipitation Wind Pressure Humidity
00:00 +13°C° 0 mm 3 mps 759 mmHg 88%
01:00 +13°C° 0 mm 3 mps 759 mmHg 86%
02:00 +13°C° 0 mm 3 mps 759 mmHg 86%
03:00 +13°C° 0 mm 3 mps 759 mmHg 86%
04:00 +13°C° 0 mm 3 mps 759 mmHg 86%
05:00 +13°C° 0 mm 3 mps 759 mmHg 85%
06:00 +14°C° 0 mm 3 mps 759 mmHg 84%
07:00 +15°C° 0 mm 2 mps 759 mmHg 84%
08:00 +16°C° 0 mm 2 mps 759 mmHg 77%
09:00 +18°C° 0 mm 2 mps 759 mmHg 71%
10:00 +19°C° 0 mm 2 mps 759 mmHg 64%
11:00 +19°C° 0.1 mm 2 mps 759 mmHg 62%
12:00 +19°C° 0.1 mm 2 mps 759 mmHg 61%
13:00 +20°C° 0.1 mm 2 mps 759 mmHg 59%
14:00 +20°C° 0.1 mm 2 mps 759 mmHg 59%
15:00 +21°C° 0.1 mm 1 mps 759 mmHg 60%
16:00 +20°C° 0.1 mm 1 mps 759 mmHg 60%
17:00 +20°C° 0 mm 1 mps 759 mmHg 64%
18:00 +20°C° 0 mm 1 mps 759 mmHg 67%
19:00 +19°C° 0 mm 1 mps 759 mmHg 71%
20:00 +18°C° 0 mm 1 mps 759 mmHg 75%
21:00 +15°C° 0 mm 1 mps 759 mmHg 79%
22:00 +14°C° 0 mm 1 mps 759 mmHg 83%
23:00 +13°C° 0 mm 1 mps 760 mmHg 85%

Tomorrow, 4 August, Wednesday

Time Temperature Precipitation Wind Pressure Humidity
00:00 +13°C° 0 mm 1 mps 760 mmHg 86%
01:00 +13°C° 0 mm 1 mps 760 mmHg 87%
02:00 +13°C° 0 mm 1 mps 760 mmHg 88%
03:00 +12°C° 0 mm 1 mps 760 mmHg 88%
04:00 +12°C° 0 mm 1 mps 760 mmHg 89%
05:00 +14°C° 0 mm 2 mps 760 mmHg 86%
06:00 +15°C° 0 mm 2 mps 760 mmHg 82%
07:00 +16°C° 0 mm 2 mps 760 mmHg 79%
08:00 +17°C° 0.1 mm 2 mps 760 mmHg 74%
09:00 +19°C° 0.1 mm 2 mps 760 mmHg 70%
10:00 +20°C° 0.1 mm 2 mps 760 mmHg 66%
11:00 +20°C° 0.1 mm 2 mps 760 mmHg 65%
12:00 +20°C° 0.1 mm 3 mps 760 mmHg 64%
13:00 +21°C° 0.1 mm 3 mps 760 mmHg 63%
14:00 +21°C° 0.1 mm 3 mps 760 mmHg 62%
15:00 +21°C° 0.1 mm 3 mps 760 mmHg 61%
16:00 +21°C° 0.1 mm 2 mps 760 mmHg 60%
17:00 +20°C° 0 mm 2 mps 760 mmHg 65%
18:00 +19°C° 0 mm 2 mps 759 mmHg 70%
19:00 +18°C° 0 mm 2 mps 759 mmHg 75%
20:00 +17°C° 0 mm 3 mps 759 mmHg 77%
21:00 +16°C° 0 mm 3 mps 759 mmHg 80%
22:00 +14°C° 0 mm 3 mps 760 mmHg 83%
23:00 +14°C° 0 mm 3 mps 759 mmHg 85%

Day after tomorrow, 5 August, Thursday

Time Temperature Precipitation Wind Pressure Humidity
00:00 +14°C° 0 mm 3 mps 759 mmHg 86%
01:00 +14°C° 0 mm 3 mps 759 mmHg 88%
02:00 +14°C° 0.1 mm 3 mps 759 mmHg 88%
03:00 +13°C° 0.1 mm 3 mps 759 mmHg 88%
04:00 +13°C° 0.1 mm 3 mps 758 mmHg 89%
05:00 +14°C° 0.1 mm 3 mps 758 mmHg 85%
06:00 +17°C° 0.1 mm 4 mps 758 mmHg 82%
07:00 +18°C° 0.1 mm 4 mps 758 mmHg 79%
08:00 +19°C° 0.3 mm 4 mps 758 mmHg 73%
09:00 +20°C° 0.3 mm 5 mps 758 mmHg 68%
10:00 +22°C° 0.3 mm 5 mps 757 mmHg 63%
11:00 +22°C° 0.4 mm 5 mps 757 mmHg 64%
12:00 +22°C° 0.4 mm 6 mps 757 mmHg 64%
13:00 +23°C° 0.4 mm 6 mps 757 mmHg 65%
14:00 +23°C° 0.5 mm 6 mps 756 mmHg 66%
15:00 +23°C° 0.5 mm 6 mps 756 mmHg 67%
16:00 +23°C° 0.5 mm 6 mps 756 mmHg 68%
17:00 +22°C° 0.8 mm 6 mps 755 mmHg 72%
18:00 +21°C° 0.8 mm 5 mps 755 mmHg 77%
19:00 +20°C° 0.8 mm 5 mps 755 mmHg 81%
20:00 +19°C° 0.4 mm 5 mps 755 mmHg 84%
21:00 +17°C° 0.4 mm 5 mps 755 mmHg 87%
22:00 +16°C° 0.4 mm 5 mps 755 mmHg 90%
23:00 +17°C° 0.2 mm 4 mps 755 mmHg 91%

6 August, Friday

Time Temperature Precipitation Wind Pressure Humidity
00:00 +17°C° 0.2 mm 4 mps 755 mmHg 91%
01:00 +15°C° 0.2 mm 4 mps 755 mmHg 92%
02:00 +15°C° 0.1 mm 4 mps 754 mmHg 92%
03:00 +16°C° 0.1 mm 3 mps 754 mmHg 92%
04:00 +16°C° 0.1 mm 3 mps 754 mmHg 92%
05:00 +16°C° 0 mm 3 mps 754 mmHg 91%
06:00 +17°C° 0 mm 4 mps 754 mmHg 90%
07:00 +17°C° 0 mm 4 mps 754 mmHg 88%
08:00 +19°C° 0.1 mm 4 mps 754 mmHg 82%
09:00 +20°C° 0.1 mm 5 mps 754 mmHg 76%
10:00 +21°C° 0.1 mm 5 mps 754 mmHg 70%
11:00 +22°C° 0.4 mm 5 mps 754 mmHg 68%
12:00 +23°C° 0.4 mm 5 mps 753 mmHg 65%
13:00 +23°C° 0.4 mm 5 mps 753 mmHg 63%
14:00 +23°C° 0.9 mm 5 mps 753 mmHg 66%
15:00 +23°C° 0.9 mm 5 mps 753 mmHg 68%
16:00 +22°C° 0.9 mm 5 mps 753 mmHg 71%
17:00 +21°C° 1.1 mm 5 mps 753 mmHg 75%
18:00 +20°C° 1.1 mm 5 mps 753 mmHg 80%
19:00 +19°C° 1.1 mm 5 mps 753 mmHg 84%
20:00 +19°C° 0.3 mm 4 mps 753 mmHg 87%
21:00 +18°C° 0.3 mm 4 mps 753 mmHg 89%
22:00 +17°C° 0.3 mm 4 mps 753 mmHg 92%
23:00 +15°C° 0.1 mm 4 mps 753 mmHg 93%

7 August, Saturday

Time Temperature Precipitation Wind Pressure Humidity
00:00 +16°C° 0.1 mm 3 mps 753 mmHg 94%
01:00 +16°C° 0.1 mm 3 mps 753 mmHg 94%
02:00 +14°C° 0 mm 3 mps 753 mmHg 95%
03:00 +14°C° 0 mm 4 mps 753 mmHg 95%
04:00 +14°C° 0 mm 4 mps 753 mmHg 95%
05:00 +14°C° 0 mm 4 mps 753 mmHg 94%
06:00 +15°C° 0 mm 4 mps 753 mmHg 92%
07:00 +15°C° 0 mm 4 mps 753 mmHg 91%
08:00 +18°C° 0 mm 4 mps 753 mmHg 82%
09:00 +19°C° 0 mm 4 mps 753 mmHg 73%
10:00 +21°C° 0 mm 5 mps 753 mmHg 64%
11:00 +21°C° 0.1 mm 4 mps 753 mmHg 62%
12:00 +22°C° 0.1 mm 4 mps 753 mmHg 59%
13:00 +22°C° 0.1 mm 3 mps 753 mmHg 56%
14:00 +24°C° 0.2 mm 3 mps 753 mmHg 56%
15:00 +24°C° 0.2 mm 3 mps 753 mmHg 56%
16:00 +24°C° 0.2 mm 3 mps 753 mmHg 56%
17:00 +22°C° 0.3 mm 3 mps 753 mmHg 62%
18:00 +20°C° 0.3 mm 3 mps 753 mmHg 69%
19:00 +19°C° 0.3 mm 3 mps 753 mmHg 75%
20:00 +18°C° 0.9 mm 2 mps 753 mmHg 81%
21:00 +17°C° 0.9 mm 2 mps 753 mmHg 87%
22:00 +16°C° 0.9 mm 2 mps 753 mmHg 93%
23:00 +14°C° 0 mm 3 mps 753 mmHg 93%

8 August, Sunday

Time Temperature Precipitation Wind Pressure Humidity
00:00 +14°C° 0 mm 4 mps 753 mmHg 93%
01:00 +14°C° 0 mm 5 mps 753 mmHg 93%
02:00 +14°C° 0 mm 5 mps 753 mmHg 94%
03:00 +13°C° 0 mm 5 mps 753 mmHg 95%
04:00 +13°C° 0 mm 6 mps 753 mmHg 96%
05:00 +14°C° 0 mm 6 mps 754 mmHg 94%
06:00 +14°C° 0 mm 6 mps 754 mmHg 93%
07:00 +14°C° 0 mm 7 mps 754 mmHg 92%
08:00 +15°C° 0 mm 7 mps 755 mmHg 91%
09:00 +15°C° 0 mm 7 mps 755 mmHg 90%
10:00 +15°C° 0 mm 6 mps 756 mmHg 89%
11:00 +16°C° 0.2 mm 7 mps 756 mmHg 86%
12:00 +17°C° 0.2 mm 8 mps 756 mmHg 82%
13:00 +18°C° 0.2 mm 8 mps 757 mmHg 79%
14:00 +18°C° 0.3 mm 8 mps 757 mmHg 75%
15:00 +18°C° 0.3 mm 8 mps 757 mmHg 72%
16:00 +20°C° 0.3 mm 8 mps 758 mmHg 68%
17:00 +18°C° 0 mm 7 mps 758 mmHg 71%
18:00 +17°C° 0 mm 6 mps 758 mmHg 75%
19:00 +17°C° 0 mm 6 mps 759 mmHg 78%
20:00 +16°C° 0.1 mm 5 mps 759 mmHg 83%
21:00 +15°C° 0.1 mm 5 mps 759 mmHg 88%
22:00 +14°C° 0.1 mm 4 mps 760 mmHg 93%
23:00 +13°C° 0 mm 5 mps 760 mmHg 93%
Show more